Location: Newark
(32.5233°N, 7.6150°W)
Time: 23:17:41
(UTC+00:00)

ISS - Visible Passes

Search period start: 19 July 2019 00:00
Search period end: 29 July 2019 00:00
Orbit: 409 x 418 km, 51.6° (Epoch: 20 July)

Date Brightness Start Highest point End Pass type
(mag) Time Alt. Az. Time Alt. Az. Time Alt. Az.
19 Jul -1.9 03:31:00 10° NNW 03:34:00 31° NE 03:36:58 10° ESE visible
19 Jul -3.1 20:09:20 10° SW 20:12:38 61° NW 20:15:57 10° NE visible
20 Jul -0.8 02:45:51 15° ENE 02:45:51 15° ENE 02:46:58 10° E visible
20 Jul -3.3 04:19:32 19° WNW 04:21:19 35° SW 04:24:21 10° SSE visible
20 Jul -0.4 20:58:37 10° WNW 21:00:19 13° NNW 21:02:01 10° N visible
21 Jul -0.9 20:08:11 10° W 20:10:49 21° NW 20:13:26 10° NNE visible
